Location: Holyhead Bay
(53.3667°N, 4.6667°W)
Time: 19:22:03
(UTC+00:00)

NOAA 15 - Pass Details

Date: 24 November 2020
Orbit: 797 x 812 km, 98.7° (Epoch: 17 January)

Event Time Altitude Azimuth Distance (km) Brightness Sun altitude
Rises 18:29:11 0° 155° (SSE) 3,321 7.6 -20.0°
Reaches altitude 10° 18:31:31 10° 154° (SSE) 2,392 6.9 -20.3°
Maximum altitude 18:36:48 73° 70° (ENE) 848 4.5 -21.1°
Drops below altitude 10° 18:42:05 10° 347° (NNW) 2,399 7.1 -21.9°
Sets 18:44:26 0° 346° (NNW) 3,332 7.9 -22.2°
